| time (UTC) | temp C | wind direction | speed KPH | gust KPH | rain 1hr cm | rain 24hr cm | rain mn cm | humidity % | barometer mb |
| 20260505015029 | 13 | 345 | 4.8 | 4.8 | 0.00 | 0.00 | 0.00 | 83 | 1010.0 |
| 20260505013528 | 13 | 345 | 4.8 | 4.8 | 0.00 | 0.00 | 0.00 | 83 | 1010.0 |
| 20260505012028 | 13 | 32 | 4.8 | 3.2 | 0.00 | 0.00 | 0.00 | 77 | 1010.0 |
| 20260505010528 | 13 | 32 | 4.8 | 3.2 | 0.00 | 0.00 | 0.00 | 79 | 1010.0 |
| 20260505005027 | 13 | 32 | 4.8 | 3.2 | 0.00 | 0.00 | 0.00 | 79 | 1010.0 |
| 20260505003527 | 13 | 75 | 3.2 | 3.2 | 0.00 | 0.00 | 0.00 | 79 | 1010.0 |
| 20260505002027 | 14 | 37 | 3.2 | 4.8 | 0.00 | 0.00 | 0.00 | 74 | 1011.0 |
| 20260505000527 | 14 | 37 | 3.2 | 4.8 | 0.00 | 0.00 | 0.00 | 73 | 1011.0 |
| 20260504235026 | 14 | 37 | 3.2 | 4.8 | 0.03 | 0.00 | 0.00 | 80 | 1011.0 |
| 20260504233526 | 14 | 37 | 3.2 | 4.8 | 0.03 | 0.00 | 0.00 | 79 | 1011.0 |
| 20260504232025 | 15 | 113 | 3.2 | 3.2 | 0.00 | 0.00 | 0.00 | 70 | 1012.0 |
| 20260504230525 | 15 | 113 | 3.2 | 3.2 | 0.00 | 0.00 | 0.00 | 70 | 1012.0 |
| 20260504225025 | 15 | 113 | 3.2 | 3.2 | 0.00 | 0.00 | 0.00 | 75 | 1011.0 |
| 20260504223524 | 15 | 113 | 3.2 | 3.2 | 0.00 | 0.00 | 0.00 | 73 | 1012.0 |
| 20260504222024 | 15 | 130 | 4.8 | 4.8 | 0.00 | 0.00 | 0.00 | 65 | 1012.0 |
| 20260504220524 | 16 | 130 | 4.8 | 4.8 | 0.00 | 0.00 | 0.00 | 70 | 1012.0 |
| 20260504215023 | 16 | 130 | 4.8 | 4.8 | 0.00 | 0.00 | 0.00 | 70 | 1012.0 |
| 20260504213523 | 16 | 130 | 4.8 | 4.8 | 0.00 | 0.00 | 0.00 | 69 | 1012.0 |
| 20260504212022 | 16 | 155 | 3.2 | 3.2 | 0.00 | 0.00 | 0.00 | 58 | 1012.0 |
| 20260504210522 | 16 | 155 | 3.2 | 3.2 | 0.00 | 0.00 | 0.00 | 58 | 1012.0 |
| 20260504205022 | 16 | 155 | 3.2 | 3.2 | 0.00 | 0.00 | 0.00 | 69 | 1012.0 |
| 20260504203521 | 16 | 155 | 3.2 | 3.2 | 0.00 | 0.00 | 0.00 | 69 | 1012.0 |
| 20260504202021 | 17 | 178 | 1.6 | 3.2 | 0.00 | 0.00 | 0.00 | 57 | 1012.0 |
| 20260504200521 | 17 | 178 | 1.6 | 3.2 | 0.00 | 0.00 | 0.00 | 56 | 1012.0 |
| 20260504195020 | 17 | 178 | 1.6 | 3.2 | 0.00 | 0.00 | 0.00 | 68 | 1012.0 |
| 20260504193520 | 17 | 178 | 1.6 | 3.2 | 0.00 | 0.00 | 0.00 | 67 | 1012.0 |
| 20260504192020 | 18 | 232 | 4.8 | 4.8 | 0.00 | 0.00 | 0.00 | 54 | 1012.0 |
| 20260504190519 | 19 | 232 | 4.8 | 4.8 | 0.00 | 0.00 | 0.00 | 62 | 1012.0 |
| 20260504185019 | 19 | 232 | 4.8 | 4.8 | 0.00 | 0.00 | 0.00 | 62 | 1012.0 |
| 20260504183519 | 19 | 172 | 8.0 | 9.7 | 0.00 | 0.00 | 0.00 | 62 | 1012.0 |
| 20260504182018 | 20 | 58 | 4.8 | 4.8 | 0.00 | 0.00 | 0.00 | 49 | 1012.0 |
| 20260504180518 | 21 | 58 | 4.8 | 4.8 | 0.00 | 0.00 | 0.00 | 48 | 1012.0 |
| 20260504175018 | 21 | 58 | 4.8 | 4.8 | 0.00 | 0.00 | 0.00 | 55 | 1011.0 |
| 20260504173517 | 21 | 58 | 4.8 | 4.8 | 0.00 | 0.00 | 0.00 | 55 | 1011.0 |
| 20260504172017 | 22 | 25 | 6.4 | 9.7 | 0.00 | 0.00 | 0.00 | 44 | 1012.0 |
| 20260504170516 | 22 | 25 | 6.4 | 9.7 | 0.00 | 0.00 | 0.00 | 44 | 1012.0 |
| 20260504150514 | 24 | 15 | 6.4 | 3.2 | 0.00 | 0.00 | 0.00 | 39 | 1012.0 |
| 20260504140513 | 24 | 358 | 6.4 | 3.2 | 0.00 | 0.00 | 0.00 | 39 | 1013.0 |
| 20260504130511 | 24 | 351 | 6.4 | 4.8 | 0.00 | 0.00 | 0.00 | 44 | 1013.0 |
| 20260504110508 | 22 | 14 | 4.8 | 3.2 | 0.00 | 0.00 | 0.00 | 44 | 1014.0 |
| 20260504100507 | 21 | 37 | 6.4 | 4.8 | 0.00 | 0.00 | 0.00 | 46 | 1014.0 |
| 20260504082004 | 19 | 332 | 8.0 | 11.3 | 0.00 | 0.00 | 0.00 | 51 | 1015.0 |
| 20260504080503 | 18 | 332 | 8.0 | 11.3 | 0.00 | 0.00 | 0.00 | 57 | 1014.0 |
| 20260504050459 | 12 | 200 | 4.8 | 8.0 | 0.00 | 0.00 | 0.00 | 66 | 1014.0 |
| 20260504044958 | 12 | 200 | 4.8 | 8.0 | 0.00 | 0.00 | 0.00 | 72 | 1014.0 |
| 20260504043458 | 12 | 200 | 4.8 | 8.0 | 0.00 | 0.00 | 0.00 | 72 | 1014.0 |
| 20260504041958 | 12 | 158 | 8.0 | 9.7 | 0.00 | 0.00 | 0.00 | 66 | 1014.0 |
| 20260504040457 | 12 | 158 | 8.0 | 9.7 | 0.00 | 0.00 | 0.00 | 66 | 1014.0 |
| 20260504034957 | 11 | 158 | 8.0 | 9.7 | 0.00 | 0.00 | 0.00 | 71 | 1014.0 |
| 20260504033456 | 11 | 158 | 8.0 | 9.7 | 0.00 | 0.00 | 0.00 | 71 | 1014.0 |
| 20260504031956 | 12 | 161 | 8.0 | 9.7 | 0.00 | 0.00 | 0.00 | 64 | 1014.0 |
| 20260504030456 | 12 | 161 | 8.0 | 9.7 | 0.00 | 0.00 | 0.00 | 62 | 1014.0 |
| 20260504024956 | 11 | 161 | 8.0 | 9.7 | 0.00 | 0.00 | 0.00 | 68 | 1014.0 |
| 20260504023455 | 11 | 161 | 8.0 | 9.7 | 0.00 | 0.00 | 0.00 | 67 | 1014.0 |
| 20260504021955 | 12 | 153 | 6.4 | 8.0 | 0.00 | 0.00 | 0.00 | 61 | 1014.0 |
| 20260504020454 | 12 | 153 | 6.4 | 8.0 | 0.00 | 0.00 | 0.00 | 64 | 1014.0 |